Location: Azul
(36.7830°S, 59.8500°W)
Time: 10:51:10
(UTC-03:00)

ISS - Pass Details

Date: 27 March 2020
Orbit: 416 x 423 km, 51.6° (Epoch: 02 April)

Event Time Altitude Azimuth Distance (km) Brightness Sun altitude
Exits shadow 04:57:37 27° 109° (ESE) 857 -1.6 -26.8°
Drops below altitude 10° 04:59:25 10° 122° (ESE) 1,535 0.0 -26.4°
Sets 05:01:34 0° 126° (SE) 2,408 1.2 -26.0°
